User: anonymous
Location: Starry Hill Observatory
(46.8582°N, 122.3590°W)
Time: 18:47:40
(UTC-07:00)
Language:

Cosmos 1300 Rocket - Orbit

View from above orbital plane
View from above orbital plane
View from above satellite
View from above satellite

Ground track
Ground track

The orbit data is extracted from the following two-line orbital elements,

1 12786U 81082B   14108.01866155  .00000582  00000-0  66687-4 0  8484
2 12786 082.4889 337.0343 0019338 110.0987 004.8932 14.84071882763294
Epoch (UTC): 18 April 2014 00:26:52
Eccentricity: 0.0019338
inclination: 82.4889°
perigee height: 603 km
apogee height: 630 km
right ascension of ascending node: 337.0343°
argument of perigee: 110.0987°
revolutions per day: 14.84071882
mean anomaly at epoch: 4.8932°
orbit number at epoch: 76329

The dashed part of the orbit path shows where the satellite is in the earth's shadow,  

DLR